This is the latest recevied weather packets stored in our database for station/object K6CED. If no packets are shown the sender has not sent any weather packets the latest 1 day(s).
| Time | Temp. | Humidity | Pressure | Rain* | Wind** | Luminosity | Snow |
|---|---|---|---|---|---|---|---|
| 1778029577 | 15.56° C | 62% | 1016.5 hPa | 0 mm | 2.68 m/s, 105° | 66 W/m² | - |
| 1778029273 | 15.56° C | 61% | 1016.6 hPa | 0 mm | 2.68 m/s, 84° | 75 W/m² | - |
| 1778028971 | 15.56° C | 62% | 1016.2 hPa | 0 mm | 0.45 m/s, 110° | 87 W/m² | - |
| 1778028667 | 15.56° C | 62% | 1016.3 hPa | 0 mm | 4.02 m/s, 97° | 91 W/m² | - |
| 1778028364 | 16.11° C | 61% | 1016.2 hPa | 0 mm | 1.34 m/s, 64° | 111 W/m² | - |
| 1778028061 | 16.11° C | 62% | 1016.5 hPa | 0 mm | 2.24 m/s, 118° | 123 W/m² | - |
| 1778027757 | 16.11° C | 61% | 1016.2 hPa | 0 mm | 0.89 m/s, 30° | 147 W/m² | - |
| 1778027453 | 16.11° C | 61% | 1016.2 hPa | 0 mm | 1.79 m/s, 84° | 161 W/m² | - |
| 1778027149 | 16.67° C | 61% | 1016.2 hPa | 0 mm | 1.79 m/s, 100° | 163 W/m² | - |
| 1778026845 | 16.67° C | 60% | 1016 hPa | 0 mm | 2.24 m/s, 105° | 321 W/m² | - |
| 1778026541 | 16.67° C | 60% | 1016.1 hPa | 0 mm | 2.68 m/s, 122° | 328 W/m² | - |
| 1778026239 | 17.22° C | 58% | 1016.3 hPa | 0 mm | 3.58 m/s, 97° | 346 W/m² | - |
| 1778025936 | 17.22° C | 57% | 1016.2 hPa | 0 mm | 1.34 m/s, 81° | 341 W/m² | - |
| 1778025634 | 17.22° C | 58% | 1016.1 hPa | 0 mm | 1.34 m/s, 94° | 369 W/m² | - |
| 1778025331 | 17.78° C | 58% | 1016.1 hPa | 0 mm | 1.34 m/s, 124° | 502 W/m² | - |
| 1778025028 | 17.22° C | 57% | 1015.9 hPa | 0 mm | 4.92 m/s, 109° | 491 W/m² | - |
| 1778024725 | 16.67° C | 57% | 1016.2 hPa | 0 mm | 1.79 m/s, 96° | 510 W/m² | - |
| 1778024422 | 16.11° C | 59% | 1016.1 hPa | 0 mm | 1.79 m/s, 49° | 143 W/m² | - |
| 1778024119 | 16.11° C | 59% | 1016.1 hPa | 0 mm | 1.34 m/s, 99° | 150 W/m² | - |
| 1778023817 | 16.11° C | 58% | 1016 hPa | 0 mm | 2.68 m/s, 95° | 136 W/m² | - |
| 1778023514 | 16.11° C | 58% | 1016.1 hPa | 0 mm | 0.45 m/s, 71° | 106 W/m² | - |
| 1778023212 | 16.11° C | 57% | 1016.2 hPa | 0 mm | 1.79 m/s, 103° | 73 W/m² | - |
| 1778022909 | 16.11° C | 56% | 1016.2 hPa | 0 mm | 0.89 m/s, 41° | 63 W/m² | - |
| 1778022608 | 16.11° C | 56% | 1016.1 hPa | 0 mm | 2.68 m/s, 105° | 64 W/m² | - |
| 1778022304 | 16.11° C | 55% | 1016 hPa | 0 mm | 2.68 m/s, 109° | 58 W/m² | - |
* Rain latest hour (hover to see other rain measurements)
** Current wind speed in m/s (hover to see current wind gust speed)